Home > Weather > Stillwater > Past weeks

Flag for USA Past Weather in Stillwater, Minnesota, USA — Yesterday and Last 2 Weeks

Now
70 °F

Partly sunny.


Feels Like: 72 °F
Forecast: 61 / 70 °F
Wind: 9 mph from Southwest

Location: St. Paul Downtown Holman Field

Current Time: May 31, 2016 at 3:05:55 PM

Latest Report: May 31, 2016 at 1:53 PM


Visibility: 10 mi

Pressure: 29.85 "Hg

Humidity: 76%

Dew Point: 62 °F

Location of StillwaterLocation

Past Weather in Stillwater — Graph

°F

Stillwater Temperature Yesterday

Maximum temperature yesterday: 82 °F (at 3:53 PM)
Minimum temperature yesterday: 55 °F (at 5:53 AM)
Average temperature yesterday: 70 °F

High & Low Weather Summary for the Past Weeks

 TemperatureHumidityPressure
High84 °F (May 22, 2:53 PM)100% (May 30, 3:55 AM)30.36 "Hg (May 30, 3:55 AM)
Low42 °F (May 18, 5:53 AM)20% (May 22, 3:53 PM)29.69 "Hg (May 26, 4:53 AM)
Average66 °F62%29.96 "Hg
* Reported May 16 1:53 PM — May 31 1:53 PM, Stillwater, Weather by CustomWeather, © 2016

Note: Actual official high and low records may vary slightly from our data, if they occured in-between our weather recording intervals... More about our weather records

Advertising

Stillwater Weather History for the Previous 24 Hours

Scroll right to see more
 ConditionsComfort  
Time TempWeatherWind HumidityBarometerVisibility
1:53 PM
Tue, May 31
70 °FPartly sunny.9 mph76%29.85 "Hg10 mi
12:53 PM69 °FMostly cloudy.7 mph81%29.86 "Hg10 mi
11:53 AM68 °FMostly cloudy.9 mph84%29.86 "Hg10 mi
10:53 AM68 °FPartly sunny.9 mph82%29.86 "Hg10 mi
9:53 AM66 °FPartly sunny.10 mph90%29.87 "Hg10 mi
8:53 AM63 °FLight rain. Overcast.14 mph93%29.87 "Hg8 mi
7:53 AM65 °FLight rain. More clouds than sun.14 mph78%29.87 "Hg7 mi
6:53 AM66 °FSunny.8 mph73%29.85 "Hg10 mi
5:53 AM65 °FPassing clouds.6 mph76%29.85 "Hg10 mi
4:53 AM67 °FPassing clouds.12 mph71%29.85 "Hg10 mi
3:53 AM67 °FPassing clouds.9 mph71%29.83 "Hg10 mi
2:53 AM68 °FClear.15 mph68%29.83 "Hg10 mi
1:53 AM69 °FPassing clouds.15 mph68%29.85 "Hg10 mi
12:53 AM70 °FPassing clouds.14 mph66%29.87 "Hg10 mi
11:53 PM
Mon, May 30
72 °FPartly cloudy.13 mph57%29.88 "Hg10 mi
10:53 PM70 °FClear.8 mph57%29.88 "Hg10 mi
9:53 PM73 °FClear.8 mph51%29.88 "Hg10 mi
8:53 PM75 °FSunny.8 mph48%29.88 "Hg10 mi
7:53 PM76 °FSunny.7 mph45%29.87 "Hg10 mi
6:53 PM78 °FSunny.8 mph40%29.87 "Hg10 mi
5:53 PM81 °FSunny.9 mph37%29.89 "Hg10 mi
4:53 PM82 °FScattered clouds.7 mph40%29.90 "Hg10 mi
3:53 PM82 °FScattered clouds.8 mph41%29.93 "Hg10 mi
Weather by CustomWeather, © 2016

See weather overviewHow to use our weather pages